Starlink 11207

operational
NORAD ID: 60933 Int'l Des: 2024-155 Owner: SPXS Country: US Constellation: starlink
LEOCIRCULAR

Starlink 11207について

説明を読み込み中...

リアルタイム位置

3D地球を読み込み中...

次回通過

高度履歴

Altitude vs Time

uPlot chart will show altitude changes over time

軌道要素

1 60933U 24155K 25259.34826225 -.00001911 00000-0 -10925-4 0 9998
2 60933 53.1569 120.4318 0000956 85.2064 274.9063 15.69703162 61026
Epoch: Sep 16, 2025 • Age: 24 hours

現在のステータス

高度 378.4 km
速度 7.68 km/s
衛星直下点 -52.05°S, 80.92°W
打ち上げ日 Aug 31, 2024
運用期間 1 years
タイプ internet

技術仕様

分類 Payload
質量 960.00 kg
乾燥質量 910.00 kg
総質量 960.00 kg
長さ 0.30 m
直径 4.10 m
スパン 29.00 m
形状 Box + pan
製造者 SPXS
バスタイプ Starlink V2MD
フェーズステータス In Orbit
所有者/国 SPXS/US

大規模コンステレーション

Loading constellations...